Weather History for Pinedale, WY

Change the Weather History Date:

Friday, February 22, 2013

  Actual Average (KBPI) Record (KBPI)
Temperature  
Mean Temperature 14 °F 17 °F  
Max Temperature 26 °F 31 °F 48 °F (2007)
Min Temperature 3 °F 3 °F -23 °F (1984)
Degree Days  
Heating Degree Days 50 48  
Month to date heating degree days 1131  
Since 1 July heating degree days 7244  
Cooling Degree Days 0 0  
Month to date cooling degree days 0  
Year to date cooling degree days 0  
Moisture  
Dew Point 8 °F    
Average Humidity 73    
Maximum Humidity 92    
Minimum Humidity 50    
Precipitation  
Precipitation 0.00 in 0.02 in 0.18 in (2006)
Month to date precipitation 0.28  
Year to date precipitation 0.59  
Sea Level Pressure  
Sea Level Pressure 29.88 in    
Wind  
Wind Speed 10 mph (WNW)    
Max Wind Speed 23 mph    
Max Gust Speed 29 mph    
Visibility 10 miles    
Events Snow    
T = Trace of Precipitation, MM = Missing Value Source: NWS Daily Summary

Daily Weather History Graph

Daily Weather History Graph

Search for Another Location

Airport:

Trip Planner

Search our weather history database for the weather conditions in past years. The results will help you decide how hot, cold, wet, or windy it might be!

Date:

Astronomy

Feb. 22, 2013 Rise Set
Actual Time 7:05 AM MST 6:00 PM MST
Civil Twilight 6:36 AM MST 6:29 PM MST
Nautical Twilight 6:04 AM MST 7:01 PM MST
Astronomical Twilight 5:31 AM MST 7:34 PM MST
Moon 3:12 PM MST 4:55 AM MST
Length of Visible Light 11h 52m
Length of Day
10h 54m
Waxing Gibbous, 90% of the Moon is Illuminated
Feb 22
Waxing Gibbous
Feb 25
Full
Mar 4
Last Quarter
Mar 11
New
Mar 19
First Quarter

Hourly Weather History & Observations

Time (MST) Temp. Windchill Dew Point Humidity Pressure Visibility Wind Dir Wind Speed Gust Speed Precip Events Conditions
12:15 AM 8.6 °F -2.6 °F 3.2 °F 79% 29.87 in 10.0 mi WNW 6.9 mph - N/A   Clear
12:35 AM 8.6 °F -2.6 °F 3.2 °F 79% 29.87 in 10.0 mi NW 6.9 mph - N/A   Clear
12:55 AM 8.6 °F -5.5 °F 3.2 °F 79% 29.87 in 10.0 mi WNW 10.4 mph - N/A   Clear
1:15 AM 8.6 °F -7.7 °F 3.2 °F 79% 29.86 in 10.0 mi WNW 13.8 mph - N/A   Clear
1:35 AM 8.6 °F -1.3 °F 3.2 °F 79% 29.87 in 10.0 mi West 5.8 mph - N/A   Clear
1:55 AM 8.6 °F -2.6 °F 3.2 °F 79% 29.87 in 10.0 mi WNW 6.9 mph - N/A   Clear
2:15 AM 8.6 °F -3.7 °F 3.2 °F 79% 29.87 in 10.0 mi West 8.1 mph - N/A   Clear
2:35 AM 8.6 °F -3.7 °F 3.2 °F 79% 29.86 in 10.0 mi West 8.1 mph - N/A   Clear
2:55 AM 6.8 °F -4.8 °F 3.2 °F 85% 29.86 in 10.0 mi West 6.9 mph - N/A   Clear
3:15 AM 8.6 °F -4.7 °F 3.2 °F 79% 29.85 in 10.0 mi WNW 9.2 mph - N/A   Clear
3:35 AM 8.6 °F -3.7 °F 1.4 °F 73% 29.85 in 10.0 mi NW 8.1 mph - N/A   Clear
3:55 AM 8.6 °F -2.6 °F 3.2 °F 79% 29.85 in 10.0 mi NW 6.9 mph - N/A   Mostly Cloudy
4:15 AM 10.4 °F -2.4 °F 5.0 °F 79% 29.86 in 7.0 mi NW 9.2 mph - N/A   Overcast
4:35 AM 10.4 °F -0.4 °F 6.8 °F 85% 29.86 in 4.0 mi NW 6.9 mph - N/A Snow Light Snow
4:55 AM 10.4 °F 0.8 °F 6.8 °F 85% 29.87 in 5.0 mi NW 5.8 mph - N/A Snow Light Snow
5:15 AM 10.4 °F -0.4 °F 8.6 °F 92% 29.87 in 3.0 mi NW 6.9 mph - N/A Snow Light Snow
5:35 AM 10.4 °F 0.8 °F 8.6 °F 92% 29.87 in 7.0 mi WNW 5.8 mph - N/A   Overcast
5:55 AM 10.4 °F -0.4 °F 5.0 °F 79% 29.87 in 10.0 mi WNW 6.9 mph - N/A   Overcast
6:15 AM 8.6 °F -3.7 °F 3.2 °F 79% 29.87 in 10.0 mi NW 8.1 mph - N/A   Mostly Cloudy
6:35 AM 5.0 °F -9.1 °F 3.2 °F 92% 29.87 in 10.0 mi NW 9.2 mph - N/A   Scattered Clouds
6:55 AM 5.0 °F -8.1 °F 1.4 °F 85% 29.87 in 10.0 mi NW 8.1 mph - N/A   Clear
7:15 AM 3.2 °F - 1.4 °F 92% 29.88 in 10.0 mi Calm Calm - N/A   Clear
7:35 AM 5.0 °F -4.1 °F 1.4 °F 85% 29.89 in 10.0 mi West 4.6 mph - N/A   Clear
7:55 AM 5.0 °F -6.9 °F 1.4 °F 85% 29.89 in 10.0 mi West 6.9 mph - N/A   Clear
8:15 AM 6.8 °F -4.8 °F 1.4 °F 79% 29.90 in 10.0 mi WNW 6.9 mph - N/A   Clear
8:35 AM 8.6 °F -1.3 °F 3.2 °F 79% 29.91 in 10.0 mi NW 5.8 mph - N/A   Mostly Cloudy
8:55 AM 10.4 °F 0.8 °F 5.0 °F 79% 29.92 in 10.0 mi NW 5.8 mph - N/A   Overcast
9:15 AM 12.2 °F 4.3 °F 5.0 °F 73% 29.93 in 10.0 mi NW 4.6 mph - N/A   Overcast
9:35 AM 14.0 °F 1.2 °F 6.8 °F 73% 29.93 in 10.0 mi WNW 10.4 mph - N/A   Mostly Cloudy
9:55 AM 17.6 °F 5.7 °F 8.6 °F 68% 29.93 in 10.0 mi WNW 10.4 mph - N/A   Clear
10:15 AM 17.6 °F 3.7 °F 10.4 °F 73% 29.93 in 10.0 mi WNW 13.8 mph - N/A   Scattered Clouds
10:35 AM 19.4 °F 5.0 °F 10.4 °F 68% 29.93 in 10.0 mi NW 16.1 mph - N/A   Scattered Clouds
10:55 AM 21.2 °F 6.8 °F 12.2 °F 68% 29.92 in 10.0 mi WNW 17.3 mph 21.9 mph N/A   Clear
11:15 AM 21.2 °F 6.8 °F 12.2 °F 68% 29.92 in 10.0 mi WNW 17.3 mph - N/A   Clear
11:35 AM 23.0 °F 9.6 °F 10.4 °F 59% 29.92 in 10.0 mi WNW 16.1 mph - N/A   Clear
11:55 AM 23.0 °F 9.2 °F 10.4 °F 59% 29.91 in 10.0 mi WNW 17.3 mph 23.0 mph N/A   Clear
12:15 PM 23.0 °F 8.7 °F 10.4 °F 59% 29.91 in 10.0 mi WNW 18.4 mph 26.5 mph N/A   Clear
12:35 PM 23.0 °F 8.3 °F 10.4 °F 59% 29.91 in 10.0 mi WNW 19.6 mph - N/A   Clear
12:55 PM 23.0 °F 8.0 °F 10.4 °F 59% 29.90 in 10.0 mi WNW 20.7 mph 26.5 mph N/A   Clear
1:15 PM 24.8 °F 9.6 °F 10.4 °F 54% 29.90 in 10.0 mi WNW 23.0 mph 28.8 mph N/A   Clear
1:35 PM 24.8 °F 10.0 °F 8.6 °F 50% 29.88 in 10.0 mi WNW 21.9 mph 27.6 mph N/A   Clear
1:55 PM 26.6 °F 12.4 °F 10.4 °F 51% 29.88 in 10.0 mi WNW 21.9 mph 26.5 mph N/A   Clear
2:15 PM 24.8 °F 9.6 °F 8.6 °F 50% 29.88 in 10.0 mi WNW 23.0 mph 28.8 mph N/A   Clear
2:35 PM 24.8 °F 10.7 °F 10.4 °F 54% 29.87 in 10.0 mi WNW 19.6 mph 26.5 mph N/A   Clear
2:55 PM 24.8 °F 9.6 °F 10.4 °F 54% 29.87 in 10.0 mi WNW 23.0 mph 27.6 mph N/A   Clear
3:15 PM 24.8 °F 10.0 °F 10.4 °F 54% 29.87 in 10.0 mi WNW 21.9 mph 27.6 mph N/A   Clear
3:35 PM 24.8 °F 10.7 °F 10.4 °F 54% 29.87 in 10.0 mi WNW 19.6 mph - N/A   Clear
3:55 PM 24.8 °F 11.1 °F 10.4 °F 54% 29.87 in 10.0 mi WNW 18.4 mph 23.0 mph N/A   Clear
4:15 PM 23.0 °F 8.7 °F 12.2 °F 63% 29.88 in 10.0 mi WNW 18.4 mph - N/A   Clear
4:35 PM 23.0 °F 10.1 °F 12.2 °F 63% 29.88 in 10.0 mi WNW 15.0 mph - N/A   Clear
4:55 PM 23.0 °F 11.1 °F 10.4 °F 59% 29.88 in 10.0 mi WNW 12.7 mph - N/A   Clear
5:15 PM 23.0 °F 11.1 °F 12.2 °F 63% 29.88 in 10.0 mi WNW 12.7 mph - N/A   Clear
5:35 PM 21.2 °F 10.9 °F 12.2 °F 68% 29.89 in 10.0 mi WNW 9.2 mph - N/A   Scattered Clouds
5:55 PM 21.2 °F 7.3 °F 12.2 °F 68% 29.89 in 10.0 mi WNW 16.1 mph 20.7 mph N/A   Scattered Clouds
6:15 PM 19.4 °F 6.6 °F 10.4 °F 68% 29.90 in 10.0 mi WNW 12.7 mph - N/A   Scattered Clouds
6:35 PM 19.4 °F 7.9 °F 10.4 °F 68% 29.90 in 10.0 mi WNW 10.4 mph - N/A   Clear
6:55 PM 17.6 °F 4.3 °F 10.4 °F 73% 29.90 in 10.0 mi WNW 12.7 mph - N/A   Clear
7:15 PM 15.8 °F 2.7 °F 8.6 °F 73% 29.89 in 10.0 mi West 11.5 mph - N/A   Clear
7:35 PM 14.0 °F 1.2 °F 8.6 °F 79% 29.90 in 10.0 mi WNW 10.4 mph - N/A   Scattered Clouds
7:55 PM 15.8 °F 3.4 °F 8.6 °F 73% 29.90 in 10.0 mi WNW 10.4 mph - N/A   Mostly Cloudy
8:15 PM 15.8 °F 5.1 °F 10.4 °F 79% 29.90 in 10.0 mi WNW 8.1 mph - N/A   Overcast
8:35 PM 15.8 °F 6.1 °F 10.4 °F 79% 29.89 in 10.0 mi NW 6.9 mph - N/A   Overcast
8:55 PM 17.6 °F 7.3 °F 10.4 °F 73% 29.89 in 10.0 mi WNW 8.1 mph - N/A   Overcast
9:15 PM 17.6 °F 8.2 °F 10.4 °F 73% 29.89 in 10.0 mi WNW 6.9 mph - N/A   Overcast
9:35 PM 17.6 °F 9.3 °F 12.2 °F 79% 29.89 in 10.0 mi WNW 5.8 mph - N/A   Overcast
9:55 PM 17.6 °F 8.2 °F 12.2 °F 79% 29.89 in 10.0 mi WNW 6.9 mph - N/A   Overcast
10:15 PM 17.6 °F - 12.2 °F 79% 29.88 in 10.0 mi Calm Calm - N/A   Overcast
10:35 PM 17.6 °F 10.7 °F 12.2 °F 79% 29.87 in 10.0 mi WNW 4.6 mph - N/A   Overcast
10:55 PM 17.6 °F 8.2 °F 12.2 °F 79% 29.87 in 10.0 mi WNW 6.9 mph - N/A   Overcast
11:15 PM 19.4 °F 10.4 °F 12.2 °F 74% 29.87 in 10.0 mi WNW 6.9 mph - N/A   Overcast
11:35 PM 19.4 °F 12.8 °F 14.0 °F 80% 29.85 in 10.0 mi WNW 4.6 mph - N/A   Overcast
11:55 PM 17.6 °F 10.7 °F 14.0 °F 86% 29.85 in 10.0 mi West 4.6 mph - N/A   Overcast